KB9ZI Weather Reports


time (UTC)temp
F
wind
direction
speed
knots
gust
knots
rain 1hr
in
rain 24hr
in
rain mn
in
humidity
%
barometer
mb
20260902100105 66 207 0.0 3.5 0.00 0.05 0.05 96 1013.5
20260902095848 66 207 0.0 3.5 0.00 0.05 0.05 96 1013.6
20260902095839 66 206 0.0 3.5 0.00 0.05 0.05 96 1013.4
20260902095815 66 206 0.0 3.5 0.00 0.05 0.05 96 1013.5
20260902095453 66 152 0.0 2.6 0.00 0.05 0.05 95 1013.3
20260902095447 66 162 0.0 3.5 0.00 0.05 0.05 96 1013.3
20260902095049 66 154 0.0 2.6 0.00 0.05 0.05 95 1013.1
20260902094851 66 152 0.0 2.6 0.00 0.05 0.05 95 1013.1
20260902094841 66 148 0.0 2.6 0.00 0.05 0.05 95 1013.2
20260902094816 66 148 0.0 2.6 0.00 0.05 0.05 95 1013.2
20260902094448 66 148 0.0 2.6 0.00 0.05 0.05 95 1013.2
20260902094249 66 147 0.0 1.7 0.00 0.05 0.05 95 1013.1
20260902094150 66 147 0.0 1.7 0.00 0.05 0.05 95 1013.0
20260902094048 66 147 0.0 1.7 0.00 0.05 0.05 95 1013.0
20260902093947 66 147 0.0 1.7 0.00 0.05 0.05 95 1012.9
20260902093841 66 147 0.0 1.7 0.00 0.05 0.05 95 1012.8
20260902093815 66 147 0.0 1.7 0.00 0.05 0.05 95 1012.9
20260902093449 66 147 0.0 0.9 0.00 0.05 0.05 95 1012.6
20260902093353 66 147 0.0 1.7 0.00 0.05 0.05 95 1012.5
20260902093336 66 147 0.0 1.7 0.00 0.05 0.05 95 1012.6
20260902093301 66 147 0.0 1.7 0.00 0.05 0.05 95 1012.5
20260902092846 66 145 0.0 2.6 0.00 0.05 0.05 95 1012.5
20260902092747 66 144 0.0 2.6 0.00 0.05 0.05 95 1012.5
20260902092558 66 144 0.0 2.6 0.00 0.05 0.05 95 1012.5
20260902092547 66 144 0.0 2.6 0.00 0.05 0.05 95 1012.5
20260902092354 66 47 0.0 2.6 0.00 0.05 0.05 95 1012.4
20260902092338 66 141 0.0 2.6 0.00 0.05 0.05 95 1012.5
20260902092305 66 47 0.0 2.6 0.00 0.05 0.05 95 1012.4
20260902091849 66 32 0.0 2.6 0.00 0.05 0.05 95 1012.2
20260902091648 66 118 0.0 2.6 0.00 0.05 0.05 95 1012.2
20260902091547 66 118 0.0 2.6 0.00 0.05 0.05 95 1012.3
20260902091449 66 120 0.0 2.6 0.00 0.05 0.05 95 1012.4
20260902091439 66 161 0.0 3.5 0.00 0.05 0.05 95 1012.4
20260902091350 66 182 0.0 4.3 0.00 0.05 0.05 95 1012.5
20260902091303 66 182 0.0 4.3 0.00 0.05 0.05 95 1012.5
20260902090846 66 183 0.0 4.3 0.00 0.05 0.05 95 1012.4
20260902090646 66 183 0.0 5.2 0.00 0.05 0.05 95 1012.5
20260902090559 66 182 0.0 5.2 0.00 0.05 0.05 95 1012.6
20260902090548 66 183 0.0 5.2 0.00 0.05 0.05 95 1012.5
20260902090404 66 183 0.0 5.2 0.00 0.05 0.05 95 1012.7
20260902090348 66 145 0.0 5.2 0.00 0.05 0.05 95 1012.7
20260902090316 66 183 0.0 5.2 0.00 0.05 0.05 95 1012.7
20260902085846 66 165 0.0 5.2 0.00 0.05 0.05 96 1012.6
20260902085750 65 214 0.0 4.3 0.00 0.05 0.05 95 1012.6
20260902085549 65 214 0.0 4.3 0.00 0.05 0.05 95 1012.7
20260902085449 65 214 0.0 4.3 0.00 0.05 0.05 95 1012.8
20260902085247 65 162 0.0 4.3 0.00 0.05 0.05 95 1012.7
20260902085204 65 148 0.0 2.6 0.00 0.05 0.05 95 1012.4
20260902085053 65 148 0.0 2.6 0.00 0.05 0.05 95 1012.4
20260902084846 65 120 0.0 1.7 0.00 0.05 0.05 95 1012.0
20260902084647 65 118 0.0 1.7 0.00 0.05 0.05 95 1012.1
20260902084545 65 118 0.0 1.7 0.00 0.05 0.05 95 1012.0
20260902084447 65 120 0.0 1.7 0.00 0.05 0.05 95 1012.0
20260902084439 65 118 0.0 2.6 0.00 0.05 0.05 95 1012.1
20260902084349 65 120 0.0 2.6 0.00 0.05 0.05 95 1011.9
20260902084305 65 120 0.0 2.6 0.00 0.05 0.05 95 1011.9
20260902083848 65 178 0.0 3.5 0.00 0.05 0.05 95 1012.0
20260902083748 65 124 0.0 6.1 0.00 0.05 0.05 95 1012.0
20260902083545 65 113 0.0 6.1 0.00 0.05 0.05 95 1011.9
20260902083446 65 133 0.0 6.1 0.01 0.05 0.05 95 1011.7
20260902083351 65 63 0.0 6.1 0.01 0.05 0.05 95 1011.4
20260902083334 65 149 0.0 6.1 0.01 0.05 0.05 95 1011.5
20260902083301 65 63 0.0 6.1 0.01 0.05 0.05 95 1011.4
20260902082946 65 79 0.0 6.1 0.01 0.05 0.05 95 1011.1
20260902082647 65 0 0.0 3.5 0.01 0.05 0.05 95 1011.0
20260902082547 65 7 0.0 3.5 0.01 0.05 0.05 95 1011.0
20260902082446 65 51 0.0 3.5 0.01 0.05 0.05 95 1010.9
20260902082347 65 34 0.0 3.5 0.02 0.05 0.05 95 1011.2
20260902082332 65 17 0.0 3.5 0.01 0.05 0.05 95 1010.9
20260902082259 65 34 0.0 3.5 0.02 0.05 0.05 95 1011.2
20260902081946 65 39 0.0 3.5 0.02 0.05 0.05 95 1011.4
20260902081649 66 11 0.0 3.5 0.02 0.05 0.05 95 1011.6
20260902081554 65 25 0.0 3.5 0.02 0.05 0.05 95 1011.7
20260902081545 66 24 0.0 3.5 0.02 0.05 0.05 95 1011.7
20260902081248 66 23 0.0 3.5 0.03 0.05 0.05 95 1011.7
20260902081047 66 23 0.0 3.5 0.03 0.05 0.05 95 1011.9
20260902080847 66 24 0.0 3.5 0.03 0.05 0.05 95 1012.0
20260902080646 66 1 0.0 6.1 0.03 0.05 0.05 95 1011.9
20260902080558 66 1 0.0 6.1 0.03 0.05 0.05 95 1011.8
20260902080546 66 1 0.0 6.1 0.03 0.05 0.05 95 1011.8
20260902080247 66 1 0.0 6.1 0.03 0.05 0.05 94 1011.8
20260902080157 66 32 0.0 6.1 0.03 0.05 0.05 94 1011.9
20260902080055 66 32 0.0 6.1 0.03 0.05 0.05 94 1011.9
20260902075847 66 31 0.0 6.1 0.00 0.02 0.05 94 1012.0
20260902075839 66 39 0.0 4.3 0.00 0.02 0.05 94 1012.5
20260902075817 66 39 0.0 4.3 0.00 0.02 0.05 94 1012.4
20260902075447 66 35 0.0 4.3 0.00 0.02 0.05 94 1012.6
20260902075248 66 27 0.0 2.6 0.00 0.02 0.05 94 1012.4
20260902075047 66 28 0.0 4.3 0.00 0.02 0.05 94 1012.2
20260902074916 67 28 0.0 4.3 0.00 0.02 0.05 94 1012.6
20260902074848 66 28 0.0 4.3 0.00 0.02 0.05 94 1012.4
20260902074835 67 28 0.0 4.3 0.00 0.02 0.05 94 1012.6
20260902074448 67 28 0.0 5.2 0.00 0.02 0.05 94 1012.7
20260902074347 67 28 0.0 5.2 0.00 0.02 0.05 94 1012.7
20260902074047 67 30 0.0 5.2 0.00 0.02 0.05 94 1012.7
20260902074033 67 30 0.0 5.2 0.00 0.02 0.05 94 1012.8
20260902073848 67 44 0.0 5.2 0.00 0.02 0.05 94 1012.7
20260902073826 67 25 0.0 5.2 0.01 0.02 0.04 94 1012.4
20260902073806 67 45 0.0 5.2 0.01 0.02 0.05 94 1012.5
20260902073448 67 154 0.0 5.2 0.01 0.02 0.04 94 1012.4
20260902073347 67 11 0.0 5.2 0.01 0.02 0.04 95 1012.3
20260902073047 67 11 0.0 8.7 0.01 0.02 0.04 95 1012.4
20260902073031 67 49 0.0 8.7 0.01 0.02 0.04 95 1012.2
20260902072948 67 32 0.0 8.7 0.02 0.02 0.04 94 1012.2
20260902072646 67 11 0.0 8.7 0.02 0.02 0.04 94 1012.2
20260902072530 67 18 0.0 8.7 0.02 0.02 0.04 94 1012.1
20260902072448 67 24 0.0 8.7 0.02 0.02 0.04 94 1012.0
20260902072247 67 30 0.0 8.7 0.02 0.02 0.04 94 1012.1
20260902072032 67 32 0.0 6.1 0.02 0.02 0.03 94 1012.2
20260902071949 67 32 0.0 6.1 0.02 0.02 0.03 94 1012.2
20260902071828 67 21 0.0 6.1 0.02 0.02 0.03 94 1012.2
20260902071824 67 34 0.0 6.1 0.02 0.02 0.03 93 1012.3
20260902071805 67 51 0.0 6.1 0.02 0.02 0.03 94 1012.1
20260902071233 67 35 0.0 3.5 0.02 0.02 0.02 93 1012.5
20260902071036 0 35 0.0 0.0 0.00 0.00 0.00 1012.6
20260902070927 0 0.0 0.0 0.02 0.02 0.02
20260902070634 0 0.0 0.0 0.02 0.02 0.02
20260902070334 0 0.0 0.0 0.02 0.02 0.02
20260902070211 0 0.0 0.0 0.02 0.02 0.02
20260902070131 0 0.0 0.0 0.02 0.02 0.02
20260902065916 0 0.0 0.0 0.00 0.00 0.02 1014.3
20260902065911 0 0.0 0.0 0.00 0.00 0.02
20260902065856 0 0.0 0.0 0.00 0.00 0.02 1014.3
20260902065435 0 0.0 0.0 0.00 0.00 0.02 1014.3
20260902065235 0 0.0 0.0 0.00 0.00 0.02 1014.3
20260902065137 69 23 0.0 0.0 0.00 0.00 0.02 90 1014.3
20260902065104 69 23 0.0 0.0 0.00 0.00 0.02 90 1014.3
20260902064850 69 23 0.0 5.2 0.00 0.00 0.02 90 1014.5
20260902064843 69 23 0.0 0.0 0.00 0.00 0.02 90 1014.3
20260902064407 69 23 0.0 5.2 0.00 0.00 0.02 90 1014.6
20260902064202 69 23 0.0 5.2 0.00 0.00 0.02 90 1014.8
20260902064100 69 49 0.0 7.8 0.00 0.00 0.02 91 1015.0
20260902064002 69 133 0.0 7.8 0.00 0.00 0.02 91 1015.1
20260902063801 69 165 0.0 7.8 0.00 0.00 0.01 91 1015.3
20260902063710 70 152 0.0 12.2 0.00 0.00 0.01 92 1015.5
20260902063601 70 152 0.0 12.2 0.00 0.00 0.01 92 1015.5
20260902063400 70 166 0.0 12.2 0.00 0.00 0.01 92 1015.6
20260902063158 70 168 0.0 12.2 0.00 0.00 0.01 92 1015.9
20260902063058 70 183 0.0 12.2 0.00 0.00 0.00 93 1015.9
20260902062958 70 189 0.0 12.2 0.00 0.00 0.00 93 1015.8
20260902062948 70 169 0.0 12.2 0.00 0.00 0.00 93 1016.1
20260902062906 70 144 0.0 9.6 0.00 0.00 0.00 94 1016.3
20260902062820 70 144 0.0 9.6 0.00 0.00 0.00 94 1016.3
20260902062009 70 195 0.0 8.7 0.01 0.00 0.01 95 1016.6
20260902061809 70 195 0.0 8.7 0.01 0.00 0.01 95 1016.4
20260902061706 70 195 0.0 8.7 0.01 0.00 0.01 95 1016.2
20260902061506 70 212 0.0 8.7 0.01 0.00 0.01 95 1015.8
20260902061307 70 196 0.0 7.8 0.01 0.00 0.01 95 1015.4
20260902061106 70 192 0.0 7.8 0.01 0.00 0.01 96 1015.2
20260902061009 70 189 0.0 5.2 0.01 0.00 0.01 96 1015.0
20260902060808 70 197 0.0 5.2 0.01 0.00 0.01 96 1014.7
20260902060706 70 188 0.0 5.2 0.00 0.00 0.00 96 1014.7
20260902060607 70 173 0.0 2.6 0.00 0.00 0.00 96 1014.4
20260902060309 70 151 0.0 0.0 0.00 0.00 0.00 96 1014.2
20260902060106 70 149 0.0 0.0 0.00 0.00 0.00 96 1013.9
20260902060058 70 149 0.0 0.0 0.00 0.00 0.00 96 1013.5
20260902060032 70 149 0.0 0.0 0.00 0.00 0.00 96 1013.7
20260902055705 70 148 0.0 0.0 0.00 0.00 0.00 96 1013.4
20260902055601 70 149 0.0 0.0 0.00 0.00 0.00 96 1013.3
20260902055307 70 148 0.0 0.0 0.00 0.00 0.00 96 1013.2
20260902055209 70 147 0.0 0.0 0.00 0.00 0.00 96 1013.2
20260902055114 70 149 0.0 0.0 0.00 0.00 0.00 96 1012.6
20260902055045 70 148 0.0 0.0 0.00 0.00 0.00 96 1012.9
20260902054705 70 148 0.0 0.0 0.00 0.00 0.00 96 1012.5
20260902054506 70 35 0.0 0.0 0.00 0.00 0.00 96 1012.1
20260902054408 70 35 0.0 0.0 0.00 0.00 0.00 96 1011.9
20260902054308 70 35 0.0 0.0 0.00 0.00 0.00 96 1011.9
20260902054109 70 35 0.0 0.0 0.00 0.00 0.00 96 1012.0
20260902054102 70 37 0.0 0.0 0.00 0.00 0.00 96 1011.9
20260902054034 70 37 0.0 0.0 0.00 0.00 0.00 96 1011.9
20260902053705 70 35 0.0 0.0 0.00 0.00 0.00 96 1011.9
20260902053609 70 37 0.0 0.0 0.00 0.00 0.00 96 1011.8
20260902053309 70 37 0.0 0.0 0.00 0.00 0.00 96 1012.1
20260902053138 70 37 0.0 0.0 0.00 0.00 0.00 96 1012.6
20260902053108 70 37 0.0 0.0 0.00 0.00 0.00 96 1012.4
20260902053101 70 37 0.0 0.0 0.00 0.00 0.00 96 1012.6
20260902052707 70 37 0.0 0.0 0.00 0.00 0.00 96 1012.5
20260902052506 70 35 0.0 0.0 0.00 0.00 0.00 95 1012.4
20260902052307 70 35 0.0 0.0 0.00 0.00 0.00 95 1012.4
20260902052208 70 37 0.0 0.0 0.00 0.00 0.00 95 1012.4
20260902052100 70 37 0.0 0.0 0.00 0.00 0.00 96 1012.8
20260902052033 70 38 0.0 0.0 0.00 0.00 0.00 95 1012.7
20260902051705 70 37 0.0 0.0 0.00 0.00 0.00 96 1012.9
20260902051602 70 202 0.0 0.0 0.00 0.00 0.00 96 1013.4
20260902051307 70 202 0.0 0.0 0.00 0.00 0.00 96 1013.7
20260902051132 70 202 0.0 0.0 0.00 0.00 0.00 96 1014.0
20260902051127 70 202 0.0 0.0 0.00 0.00 0.00 96 1014.0
20260902051119 70 202 0.0 0.0 0.00 0.00 0.00 96 1013.7
20260902051049 70 202 0.0 0.0 0.00 0.00 0.00 96 1014.0
20260902050610 70 200 0.0 0.0 0.00 0.00 0.00 96 1014.1
20260902050311 70 202 0.0 0.0 0.00 0.00 0.00 96 1014.2
20260902050304 70 202 0.0 0.0 0.00 0.00 0.00 96 1014.3
20260902050206 70 202 0.0 0.0 0.00 0.00 0.00 96 1014.3
20260902050059 69 200 0.0 0.0 0.00 0.00 0.00 96 1014.3
20260902050030 70 202 0.0 0.0 0.00 0.00 0.00 96 1014.3
20260902045701 69 202 0.0 0.0 0.00 0.00 0.00 96 1014.3
20260902045501 69 202 0.0 0.0 0.00 0.00 0.00 96 1014.2
20260902045309 69 200 0.0 0.0 0.00 0.00 0.00 96 1014.1
20260902045300 69 202 0.0 0.0 0.00 0.00 0.00 96 1014.0
20260902045207 69 202 0.0 0.0 0.00 0.00 0.00 95 1013.5
20260902045111 69 200 0.0 0.0 0.00 0.00 0.00 95 1013.6
20260902045102 69 202 0.0 0.0 0.00 0.00 0.00 96 1013.8
20260902045030 69 202 0.0 0.0 0.00 0.00 0.00 95 1013.6
20260902044455 69 202 0.0 0.0 0.00 0.00 0.00 95 1013.4
20260902044312 69 202 0.0 0.0 0.00 0.00 0.00 95 1013.3
20260902044304 69 202 0.0 0.0 0.00 0.00 0.00 95 1013.3
20260902044056 69 202 0.0 0.0 0.00 0.00 0.00 95 1013.2
20260902043856 69 202 0.0 0.0 0.00 0.00 0.00 95 1013.1
20260902043809 69 200 0.0 0.0 0.00 0.00 0.00 95 1013.1
20260902043801 69 200 0.0 0.0 0.00 0.00 0.00 95 1013.1
20260902043454 69 202 0.0 0.0 0.00 0.00 0.00 95 1013.1
20260902043351 69 202 0.0 0.0 0.00 0.00 0.00 95 1012.9
20260902043306 69 200 0.0 0.0 0.00 0.00 0.00 95 1013.0
20260902043051 69 202 0.0 0.0 0.00 0.00 0.00 95 1012.9
20260902042852 69 202 0.0 0.0 0.00 0.00 0.00 95 1012.8
20260902042803 69 202 0.0 0.0 0.00 0.00 0.00 95 1012.7
20260902042649 69 200 0.0 0.0 0.00 0.00 0.00 95 1012.6
20260902042450 69 202 0.0 0.0 0.00 0.00 0.00 95 1012.7
20260902042350 69 202 0.0 0.0 0.00 0.00 0.00 95 1012.7
20260902042308 69 200 0.0 0.0 0.00 0.00 0.00 95 1012.7
20260902042048 69 202 0.0 0.0 0.00 0.00 0.00 94 1012.7
20260902041849 69 200 0.0 0.0 0.00 0.00 0.00 95 1012.7
20260902041756 69 202 0.0 0.0 0.00 0.00 0.00 95 1012.7
20260902041648 69 200 0.0 0.0 0.00 0.00 0.00 95 1012.7
20260902041447 69 202 0.0 0.0 0.00 0.00 0.00 95 1012.8
20260902041345 69 202 0.0 0.0 0.00 0.00 0.00 95 1012.8
20260902041257 69 202 0.0 0.0 0.00 0.00 0.00 95 1012.8
20260902041044 69 202 0.0 0.0 0.00 0.00 0.00 95 1012.7
20260902040944 69 202 0.0 0.0 0.00 0.00 0.00 95 1012.7
20260902040759 69 200 0.0 0.0 0.00 0.00 0.00 95 1012.7
20260902040644 69 200 0.0 0.0 0.00 0.00 0.00 95 1012.8
20260902040441 69 202 0.0 0.0 0.00 0.00 0.00 95 1012.6
20260902040254 69 200 0.0 0.0 0.00 0.00 0.00 95 1012.7
20260902040239 69 202 0.0 0.0 0.00 0.00 0.00 95 1012.7
20260902040036 69 202 0.0 0.0 0.00 0.00 0.00 95 1012.7
20260902035936 69 202 0.0 0.0 0.00 0.00 0.00 95 1012.6
20260902035756 69 202 0.0 0.0 0.00 0.00 0.00 94 1012.8
20260902035635 69 202 0.0 0.0 0.00 0.00 0.00 94 1012.8
20260902035534 69 200 0.0 0.0 0.00 0.00 0.00 94 1012.9
20260902035234 69 202 0.0 0.0 0.00 0.00 0.00 94 1012.8
20260902035032 69 202 0.0 0.0 0.00 0.00 0.00 94 1012.7
20260902034831 69 202 0.0 0.0 0.00 0.00 0.00 94 1012.7
20260902034755 69 202 0.0 0.0 0.00 0.00 0.00 94 1012.7
20260902034630 69 202 0.0 0.0 0.00 0.00 0.00 94 1012.7
20260902034429 69 202 0.0 0.0 0.00 0.00 0.00 94 1012.7
20260902034326 69 202 0.0 0.0 0.00 0.00 0.00 94 1012.7
20260902034254 69 202 0.0 0.0 0.00 0.00 0.00 94 1012.7
20260902034029 69 202 0.0 0.0 0.00 0.00 0.00 94 1012.8
20260902033829 69 200 0.0 0.0 0.00 0.00 0.00 94 1012.8
20260902033752 69 202 0.0 0.0 0.00 0.00 0.00 94 1012.9
20260902033630 69 202 0.0 0.0 0.00 0.00 0.00 94 1012.9
20260902033434 69 200 0.0 0.0 0.00 0.00 0.00 94 1013.1
20260902033326 69 200 0.0 0.0 0.00 0.00 0.00 94 1013.1
20260902033251 69 202 0.0 0.0 0.00 0.00 0.00 94 1013.1
20260902033027 69 202 0.0 0.0 0.00 0.00 0.00 94 1013.3
20260902032925 69 202 0.0 0.0 0.00 0.00 0.00 94 1013.3
20260902032752 69 202 0.0 0.0 0.00 0.00 0.00 94 1013.3
20260902032626 69 202 0.0 0.0 0.00 0.00 0.00 94 1013.4
20260902032424 69 202 0.0 0.0 0.00 0.00 0.00 94 1013.5
20260902032224 69 202 0.0 0.0 0.00 0.00 0.00 94 1013.6
20260902032022 69 200 0.0 0.0 0.00 0.00 0.00 94 1013.6
20260902031920 69 202 0.0 0.0 0.00 0.00 0.00 94 1013.6
20260902031748 69 200 0.0 0.0 0.00 0.00 0.00 94 1013.5
20260902031627 70 202 0.0 0.0 0.00 0.00 0.00 93 1013.6
20260902031622 70 200 0.0 0.0 0.00 0.00 0.00 94 1013.6
20260902031541 70 200 0.0 0.0 0.00 0.00 0.00 93 1013.6
20260902031220 70 200 0.0 0.0 0.00 0.00 0.00 93 1013.6
20260902031050 70 202 0.0 0.0 0.00 0.00 0.00 93 1013.6
20260902031042 70 202 0.0 0.0 0.00 0.00 0.00 94 1013.6
20260902031013 70 202 0.0 0.0 0.00 0.00 0.00 94 1013.6
20260902030617 70 202 0.0 0.0 0.00 0.00 0.00 93 1013.5
20260902030417 70 202 0.0 0.0 0.00 0.00 0.00 93 1013.5
20260902030246 70 200 0.0 0.0 0.00 0.00 0.00 93 1013.5
20260902030216 70 202 0.0 0.0 0.00 0.00 0.00 93 1013.5
20260902030105 70 200 0.0 0.0 0.00 0.00 0.00 93 1013.5
20260902030048 70 202 0.0 0.0 0.00 0.00 0.00 93 1013.5
20260902030005 70 200 0.0 0.0 0.00 0.00 0.00 93 1013.5
20260902025412 70 202 0.0 0.0 0.00 0.00 0.00 93 1013.4
20260902025247 70 199 0.0 0.0 0.00 0.00 0.00 93 1013.3
20260902025211 70 200 0.0 0.0 0.00 0.00 0.00 93 1013.3
20260902025052 70 200 0.0 0.0 0.00 0.00 0.00 92 1013.2
20260902025038 70 202 0.0 0.0 0.00 0.00 0.00 92 1013.3
20260902025006 70 200 0.0 0.0 0.00 0.00 0.00 92 1013.3
20260902024610 70 202 0.0 0.0 0.00 0.00 0.00 93 1013.2
20260902024409 70 200 0.0 0.0 0.00 0.00 0.00 92 1013.2
20260902024359 70 202 0.0 0.0 0.00 0.00 0.00 92 1013.3
20260902024246 70 202 0.0 0.0 0.00 0.00 0.00 92 1013.3
20260902024013 70 202 0.0 0.0 0.00 0.00 0.00 92 1013.3
20260902023810 70 200 0.0 0.0 0.00 0.00 0.00 92 1013.2
20260902023746 70 203 0.0 0.0 0.00 0.00 0.00 92 1013.2
20260902023606 70 200 0.0 0.0 0.00 0.00 0.00 92 1013.2
20260902023405 70 200 0.0 0.0 0.00 0.00 0.00 92 1013.3
20260902023247 70 200 0.0 0.0 0.00 0.00 0.00 92 1013.2
20260902023203 70 202 0.0 0.0 0.00 0.00 0.00 92 1013.3
20260902023125 70 202 0.0 0.0 0.00 0.00 0.00 92 1013.4
20260902023053 71 200 0.0 0.0 0.00 0.00 0.00 92 1013.3
20260902023033 71 202 0.0 0.0 0.00 0.00 0.00 92 1013.3
20260902022604 71 200 0.0 0.0 0.00 0.00 0.00 92 1013.2
20260902022402 71 200 0.0 0.0 0.00 0.00 0.00 92 1013.1
20260902022237 71 200 0.0 0.0 0.00 0.00 0.00 92 1013.2
20260902022124 71 203 0.0 0.0 0.00 0.00 0.00 92 1013.1
20260902022035 71 202 0.0 0.0 0.00 0.00 0.00 92 1013.2
20260902021955 71 200 0.0 0.0 0.00 0.00 0.00 92 1013.2
20260902021602 71 203 0.0 0.0 0.00 0.00 0.00 91 1013.2
20260902021402 71 200 0.0 0.0 0.00 0.00 0.00 91 1013.3
20260902021238 71 200 0.0 0.0 0.00 0.00 0.00 91 1013.3
20260902021201 71 200 0.0 0.0 0.00 0.00 0.00 91 1013.3
20260902021053 71 200 0.0 0.0 0.00 0.00 0.00 91 1013.3
20260902021034 71 203 0.0 0.0 0.00 0.00 0.00 91 1013.3
20260902021021 71 202 0.0 0.0 0.00 0.00 0.00 91 1013.3
20260902020656 71 203 0.0 0.0 0.00 0.00 0.00 91 1013.4
20260902020358 71 202 0.0 0.0 0.00 0.00 0.00 91 1013.4
20260902020235 71 202 0.0 0.0 0.00 0.00 0.00 91 1013.3
20260902020156 71 200 0.0 0.0 0.00 0.00 0.00 91 1013.4
20260902015957 72 200 0.0 0.0 0.00 0.00 0.00 91 1013.4
20260902015752 72 200 0.0 0.0 0.00 0.00 0.00 91 1013.3
20260902015730 72 202 0.0 0.0 0.00 0.00 0.00 91 1013.3
20260902015552 72 200 0.0 0.0 0.00 0.00 0.00 91 1013.3
20260902015454 72 202 0.0 0.0 0.00 0.00 0.00 91 1013.4
20260902015250 72 202 0.0 0.0 0.00 0.00 0.00 91 1013.3
20260902015231 72 202 0.0 0.0 0.00 0.00 0.00 90 1013.3
20260902014951 72 200 0.0 0.0 0.00 0.00 0.00 91 1013.3
20260902014750 72 200 0.0 0.0 0.00 0.00 0.00 90 1013.2
20260902014732 72 202 0.0 0.0 0.00 0.00 0.00 90 1013.2
20260902014550 72 202 0.0 0.0 0.00 0.00 0.00 90 1013.1
20260902014350 72 202 0.0 0.0 0.00 0.00 0.00 90 1013.1
20260902014232 72 202 0.0 0.0 0.00 0.00 0.00 90 1013.0
20260902014149 72 202 0.0 0.0 0.00 0.00 0.00 90 1013.0
20260902013950 72 200 0.0 0.0 0.00 0.00 0.00 90 1013.0
20260902013723 73 202 0.0 0.0 0.00 0.00 0.00 90 1013.0
20260902013647 73 200 0.0 0.0 0.00 0.00 0.00 90 1013.0
20260902013443 73 202 0.0 0.0 0.00 0.00 0.00 90 1013.0
20260902013223 73 200 0.0 0.0 0.00 0.00 0.00 89 1013.0
20260902013144 73 200 0.0 0.0 0.00 0.00 0.00 89 1013.1
20260902012946 73 202 0.0 0.0 0.00 0.00 0.00 89 1013.0
20260902012743 73 202 0.0 0.0 0.00 0.00 0.00 89 1013.1
20260902012722 73 200 0.0 0.0 0.00 0.00 0.00 89 1013.1
20260902012543 73 202 0.0 0.0 0.00 0.00 0.00 89 1013.0
20260902012343 73 202 0.0 0.0 0.00 0.00 0.00 89 1013.1
20260902012240 74 202 0.0 0.0 0.00 0.00 0.00 88 1013.0
20260902012213 74 200 0.0 0.0 0.00 0.00 0.00 88 1013.0
20260902012045 74 200 0.0 0.0 0.00 0.00 0.00 88 1012.9
20260902011741 74 200 0.0 0.0 0.00 0.00 0.00 88 1013.0
20260902011712 74 199 0.0 0.0 0.00 0.00 0.00 88 1013.0
20260902011541 74 200 0.0 0.0 0.00 0.00 0.00 88 1013.0
20260902011456 74 200 0.0 0.0 0.00 0.00 0.00 87 1013.0
20260902011439 74 202 0.0 0.0 0.00 0.00 0.00 87 1013.0
20260902011140 74 202 0.0 0.0 0.00 0.00 0.00 87 1013.0
20260902010939 75 202 0.0 0.0 0.00 0.00 0.00 87 1012.9
20260902010838 75 200 0.0 0.0 0.00 0.00 0.00 87 1012.9
20260902010706 75 202 0.0 0.0 0.00 0.00 0.00 87 1012.9
20260902010638 75 200 0.0 0.0 0.00 0.00 0.00 87 1012.9
20260902010336 75 200 0.0 0.0 0.00 0.00 0.00 86 1012.8
20260902010231 75 200 0.0 0.0 0.00 0.00 0.00 86 1012.9
20260902010205 75 200 0.0 0.0 0.00 0.00 0.00 86 1012.9
20260902005935 75 202 0.0 0.0 0.00 0.00 0.00 86 1012.9
20260902005834 76 202 0.0 0.0 0.00 0.00 0.00 86 1012.9
20260902005705 76 200 0.0 0.0 0.00 0.00 0.00 86 1012.9
20260902005535 76 202 0.0 0.0 0.00 0.00 0.00 86 1012.8
20260902005333 76 202 0.0 0.0 0.00 0.00 0.00 85 1012.9
20260902005205 76 203 0.0 0.0 0.00 0.00 0.00 85 1012.9
20260902005133 76 200 0.0 0.0 0.00 0.00 0.00 85 1012.9
20260902004933 76 200 0.0 0.0 0.00 0.00 0.00 85 1012.9
20260902004834 76 200 0.0 0.0 0.00 0.00 0.00 85 1012.9
20260902004704 76 200 0.0 0.0 0.00 0.00 0.00 85 1012.9
20260902004530 76 202 0.0 0.0 0.00 0.00 0.00 85 1012.9
20260902004435 76 202 0.0 0.0 0.00 0.00 0.00 84 1012.9
20260902004203 77 202 0.0 0.0 0.00 0.00 0.00 84 1012.9
20260902004131 77 202 0.0 0.0 0.00 0.00 0.00 84 1012.9
20260902003932 77 202 0.0 0.0 0.00 0.00 0.00 84 1012.9
20260902003730 77 203 0.0 0.0 0.00 0.00 0.00 84 1012.9
20260902003704 77 200 0.0 0.0 0.00 0.00 0.00 84 1012.9
20260902003532 77 200 0.0 0.0 0.00 0.00 0.00 84 1012.8
20260902003426 77 202 0.0 0.0 0.00 0.00 0.00 83 1012.7
20260902003203 77 200 0.0 0.0 0.00 0.00 0.00 83 1012.9
20260902003133 77 202 0.0 0.0 0.00 0.00 0.00 83 1012.9
20260902003034 77 202 0.0 0.0 0.00 0.00 0.00 83 1012.8
20260902002734 78 202 0.0 0.0 0.00 0.00 0.00 83 1012.9
20260902002704 78 200 0.0 0.0 0.00 0.00 0.00 82 1012.8
20260902002534 78 199 0.0 0.0 0.00 0.00 0.00 82 1012.9
20260902002321 78 200 0.0 0.0 0.00 0.00 0.00 82 1013.0
20260902002317 78 202 0.0 0.0 0.00 0.00 0.00 82 1012.9
20260902002203 78 202 0.0 0.0 0.00 0.00 0.00 82 1013.0
20260902001919 78 203 0.0 0.0 0.00 0.00 0.00 82 1012.9
20260902001716 78 202 0.0 0.0 0.00 0.00 0.00 81 1013.0
20260902001703 78 202 0.0 0.0 0.00 0.00 0.00 81 1013.1
20260902001517 78 200 0.0 0.0 0.00 0.00 0.00 81 1013.0
20260902001315 78 202 0.0 0.0 0.00 0.00 0.00 79 1013.1
20260902001203 78 202 0.0 0.0 0.00 0.00 0.00 79 1013.0
20260902001115 78 200 0.0 0.0 0.00 0.00 0.00 79 1013.0
20260902000921 79 202 0.0 0.0 0.00 0.00 0.00 79 1013.2
20260902000915 79 202 0.0 0.0 0.00 0.00 0.00 79 1013.1
20260902000708 79 200 0.0 0.0 0.00 0.00 0.00 79 1013.2
20260902000513 79 202 0.0 0.0 0.00 0.00 0.00 79 1013.2
20260902000313 79 202 0.0 0.0 0.00 0.00 0.00 79 1013.3
20260902000207 79 202 0.0 0.0 0.00 0.00 0.00 78 1013.1
20260902000111 79 200 0.0 0.0 0.00 0.00 0.00 79 1013.1
20260901235911 79 200 0.0 0.0 0.00 0.00 0.00 78 1013.2
20260901235715 79 202 0.0 0.0 0.00 0.00 0.00 78 1013.2
20260901235709 79 200 0.0 0.0 0.00 0.00 0.00 78 1013.2
20260901235514 80 200 0.0 0.0 0.00 0.00 0.00 78 1013.3
20260901235509 80 200 0.0 0.0 0.00 0.00 0.00 79 1013.2
20260901235219 80 202 0.0 0.0 0.00 0.00 0.00 78 1013.3
20260901235111 80 200 0.0 0.0 0.00 0.00 0.00 78 1013.3
20260901235009 80 202 0.0 0.0 0.00 0.00 0.00 79 1013.2
20260901234954 80 200 0.0 0.0 0.00 0.00 0.00 79 1013.3
20260901234922 80 200 0.0 0.0 0.00 0.00 0.00 79 1013.2
20260901234507 80 202 0.0 0.0 0.00 0.00 0.00 78 1013.2
20260901234307 80 202 0.0 0.0 0.00 0.00 0.00 78 1013.2
20260901234206 80 202 0.0 0.0 0.00 0.00 0.00 78 1013.3
20260901234106 80 202 0.0 0.0 0.00 0.00 0.00 78 1013.3
20260901233907 80 202 0.0 0.0 0.00 0.00 0.00 78 1013.2
20260901233817 80 202 0.0 0.0 0.00 0.00 0.00 78 1013.3
20260901233708 80 202 0.0 0.0 0.00 0.00 0.00 78 1013.3
20260901233508 80 202 0.0 0.0 0.00 0.00 0.00 77 1013.2
20260901233408 81 200 0.0 0.0 0.00 0.00 0.00 77 1013.2
20260901233207 81 202 0.0 0.0 0.00 0.00 0.00 77 1013.2
20260901233106 81 202 0.0 0.0 0.00 0.00 0.00 76 1013.1
20260901232906 80 202 0.0 0.0 0.00 0.00 0.00 75 1013.2
20260901232724 80 202 0.0 0.0 0.00 0.00 0.00 75 1013.2
20260901232507 81 202 0.0 0.0 0.00 0.00 0.00 75 1013.2
20260901232406 81 202 0.0 0.0 0.00 0.00 0.00 75 1013.2
20260901232209 81 202 0.0 0.0 0.00 0.00 0.00 74 1013.2
20260901232107 81 200 0.0 0.0 0.00 0.00 0.00 74 1013.2
20260901232005 81 202 0.0 0.0 0.00 0.00 0.00 75 1013.2
20260901231707 81 200 0.0 0.0 0.00 0.00 0.00 75 1013.2
20260901231506 81 200 0.0 0.0 0.00 0.00 0.00 74 1013.2
20260901231306 81 202 0.0 0.0 0.00 0.00 0.00 74 1013.2
20260901231208 81 202 0.0 0.0 0.00 0.00 0.00 74 1013.2
20260901231106 81 200 0.0 0.0 0.00 0.00 0.00 74 1013.2
20260901231009 81 200 0.0 0.0 0.00 0.00 0.00 74 1013.3
20260901230707 81 200 0.0 0.0 0.00 0.00 0.00 74 1013.2
20260901230606 81 200 0.0 0.0 0.00 0.00 0.00 74 1013.2
20260901230306 81 200 0.0 0.0 0.00 0.00 0.00 74 1013.2
20260901230206 81 202 0.0 0.0 0.00 0.00 0.00 74 1013.2
20260901230107 81 200 0.0 0.0 0.00 0.00 0.00 74 1013.2
20260901230053 81 202 0.0 0.0 0.00 0.00 0.00 75 1013.2
20260901230006 81 200 0.0 0.0 0.00 0.00 0.00 76 1013.2
20260901225921 81 200 0.0 0.0 0.00 0.00 0.00 76 1013.2
20260901225608 81 200 0.0 0.0 0.00 0.00 0.00 76 1013.2
20260901225306 81 202 0.0 0.0 0.00 0.00 0.00 76 1013.1
20260901225206 81 200 0.0 0.0 0.00 0.00 0.00 76 1013.1
20260901225106 81 200 0.0 0.0 0.00 0.00 0.00 75 1013.1
20260901225001 82 202 0.0 0.0 0.00 0.00 0.00 76 1013.2
20260901224950 81 202 0.0 0.0 0.00 0.00 0.00 75 1013.1
20260901224921 82 202 0.0 0.0 0.00 0.00 0.00 76 1013.2
20260901224608 82 200 0.0 0.0 0.00 0.00 0.00 75 1013.1
20260901224306 82 202 0.0 0.0 0.00 0.00 0.00 75 1013.1
20260901224219 82 202 0.0 0.0 0.00 0.00 0.00 74 1013.2
20260901224206 82 200 0.0 0.0 0.00 0.00 0.00 75 1013.1
20260901223958 82 200 0.0 0.0 0.00 0.00 0.00 72 1013.3
20260901223947 82 199 0.0 0.0 0.00 0.00 0.00 72 1013.1
20260901223921 82 200 0.0 0.0 0.00 0.00 0.00 72 1013.3
20260901223508 82 202 0.0 0.0 0.00 0.00 0.00 73 1013.3
20260901223306 82 200 0.0 0.0 0.00 0.00 0.00 73 1013.2
20260901223215 82 200 0.0 0.0 0.00 0.00 0.00 74 1013.2
20260901223206 82 199 0.0 0.0 0.00 0.00 0.00 75 1013.2
20260901222955 82 199 0.0 0.0 0.00 0.00 0.00 73 1013.3
20260901222944 82 202 0.0 0.0 0.00 0.00 0.00 74 1013.3
20260901222507 82 200 0.0 0.0 0.00 0.00 0.00 72 1013.2
20260901222457 82 200 0.0 0.0 0.00 0.00 0.00 73 1013.2
20260901222436 82 200 0.0 0.0 0.00 0.00 0.00 73 1013.2
20260901222107 82 200 0.0 0.0 0.00 0.00 0.00 74 1013.3
20260901222006 82 200 0.0 0.0 0.00 0.00 0.00 74 1013.2
20260901221715 82 200 0.0 0.0 0.00 0.00 0.00 75 1013.2
20260901221606 82 202 0.0 0.0 0.00 0.00 0.00 76 1013.2
20260901221452 82 200 0.0 0.0 0.00 0.00 0.00 74 1013.2
20260901221432 82 200 0.0 0.0 0.00 0.00 0.00 74 1013.2
20260901221107 82 200 0.0 0.0 0.00 0.00 0.00 74 1013.3
20260901220903 82 200 0.0 0.0 0.00 0.00 0.00 75 1013.1
20260901220717 82 200 0.0 0.0 0.00 0.00 0.00 74 1013.2
20260901220608 82 202 0.0 0.0 0.00 0.00 0.00 75 1013.1
20260901220507 82 200 0.0 0.0 0.00 0.00 0.00 72 1013.2
20260901220458 82 200 0.0 0.0 0.00 0.00 0.00 72 1013.2
20260901220434 82 200 0.0 0.0 0.00 0.00 0.00 72 1013.2
20260901215903 83 200 0.0 0.0 0.00 0.00 0.00 72 1013.1
20260901215704 83 202 0.0 0.0 0.00 0.00 0.00 71 1013.1
20260901215525 83 200 0.0 0.0 0.00 0.00 0.00 73 1013.1
20260901215520 83 202 0.0 0.0 0.00 0.00 0.00 72 1013.1
20260901215514 83 202 0.0 0.0 0.00 0.00 0.00 72 1013.1
20260901215446 83 200 0.0 0.0 0.00 0.00 0.00 73 1013.1
20260901214907 83 200 0.0 0.0 0.00 0.00 0.00 72 1013.2
20260901214811 83 200 0.0 0.0 0.00 0.00 0.00 71 1013.1
20260901214709 83 200 0.0 0.0 0.00 0.00 0.00 71 1013.1
20260901214507 83 200 0.0 0.0 0.00 0.00 0.00 69 1013.1
20260901214307 83 200 0.0 0.0 0.00 0.00 0.00 70 1013.1
20260901214219 83 199 0.0 0.0 0.00 0.00 0.00 70 1013.1
20260901214106 83 200 0.0 0.0 0.00 0.00 0.00 69 1013.1
20260901214022 84 200 0.0 1.7 0.00 0.00 0.00 71 1013.1
20260901213957 83 200 0.0 0.9 0.00 0.00 0.00 69 1013.1
20260901213933 84 200 0.0 1.7 0.00 0.00 0.00 71 1013.1
20260901213506 84 200 0.0 3.5 0.00 0.00 0.00 70 1013.2
20260901213307 84 200 0.0 3.5 0.00 0.00 0.00 66 1013.1
20260901213208 84 200 0.0 3.5 0.00 0.00 0.00 66 1013.0
20260901213107 84 200 0.0 3.5 0.00 0.00 0.00 66 1013.1
20260901213046 84 202 0.0 3.5 0.00 0.00 0.00 68 1013.1
20260901212955 84 200 0.0 3.5 0.00 0.00 0.00 64 1013.1
20260901212507 84 206 0.0 1.7 0.00 0.00 0.00 66 1013.1
20260901212307 85 204 0.0 1.7 0.00 0.00 0.00 67 1013.1
20260901212209 84 203 0.0 1.7 0.00 0.00 0.00 67 1013.1
20260901212106 84 206 0.0 1.7 0.00 0.00 0.00 65 1013.0
20260901211958 84 204 0.0 1.7 0.00 0.00 0.00 69 1013.1
20260901211947 84 204 0.0 1.7 0.00 0.00 0.00 65 1013.2
20260901211920 84 204 0.0 1.7 0.00 0.00 0.00 69 1013.1
20260901211516 84 206 0.0 2.6 0.00 0.00 0.00 72 1013.1
20260901211507 84 204 0.0 2.6 0.00 0.00 0.00 69 1013.1
20260901211206 83 206 0.0 2.6 0.00 0.00 0.00 70 1013.1
20260901211106 83 203 0.0 2.6 0.00 0.00 0.00 70 1013.1
20260901210906 83 204 0.0 2.6 0.00 0.00 0.00 68 1013.2
20260901210720 83 204 0.0 2.6 0.00 0.00 0.00 65 1013.2
20260901210506 83 203 0.0 2.6 0.00 0.00 0.00 66 1013.2
20260901210306 83 204 0.0 2.6 0.00 0.00 0.00 66 1013.2
20260901210207 83 206 0.0 2.6 0.00 0.00 0.00 66 1013.2
20260901210106 83 206 0.0 2.6 0.00 0.00 0.00 67 1013.2
20260901205906 83 204 0.0 2.6 0.00 0.00 0.00 66 1013.3
20260901205707 83 204 0.0 2.6 0.00 0.00 0.00 66 1013.2
20260901205533 82 204 0.0 2.6 0.00 0.00 0.00 66 1013.2
20260901205506 83 204 0.0 2.6 0.00 0.00 0.00 65 1013.2
20260901205452 82 203 0.0 1.7 0.00 0.00 0.00 66 1013.1
20260901205106 82 206 0.0 0.9 0.00 0.00 0.00 69 1013.1
20260901205008 82 203 0.0 0.0 0.00 0.00 0.00 69 1013.2
20260901204708 82 203 0.0 0.0 0.00 0.00 0.00 69 1013.1
20260901204512 82 203 0.0 0.0 0.00 0.00 0.00 69 1013.2
20260901204443 83 204 0.0 0.0 0.00 0.00 0.00 69 1013.1
20260901204431 82 203 0.0 0.0 0.00 0.00 0.00 69 1013.0
20260901204106 83 204 0.0 0.0 0.00 0.00 0.00 69 1013.0
20260901204008 83 204 0.0 0.0 0.00 0.00 0.00 69 1013.1
20260901203707 83 204 0.0 0.0 0.00 0.00 0.00 70 1013.1
20260901203605 83 203 0.0 0.0 0.00 0.00 0.00 70 1013.1
20260901203458 83 204 0.0 1.7 0.00 0.00 0.00 70 1013.2
20260901203434 83 204 0.0 0.0 0.00 0.00 0.00 70 1013.2
20260901203106 83 204 0.0 1.7 0.00 0.00 0.00 69 1013.2
20260901202906 83 204 0.0 1.7 0.00 0.00 0.00 67 1013.4
20260901202708 83 204 0.0 2.6 0.00 0.00 0.00 68 1013.4
20260901202608 83 204 0.0 2.6 0.00 0.00 0.00 65 1013.7
20260901202513 83 204 0.0 2.6 0.00 0.00 0.00 65 1013.6
20260901202507 83 204 0.0 2.6 0.00 0.00 0.00 64 1013.4
20260901202435 83 204 0.0 2.6 0.00 0.00 0.00 64 1013.6
20260901201906 83 204 0.0 2.6 0.00 0.00 0.00 64 1013.8
20260901201708 83 204 0.0 2.6 0.00 0.00 0.00 65 1013.8
20260901201505 82 204 0.0 2.6 0.00 0.00 0.00 64 1013.8
20260901201306 82 206 0.0 2.6 0.00 0.00 0.00 66 1013.8
20260901201217 82 204 0.0 2.6 0.00 0.00 0.00 66 1013.7
20260901201206 82 206 0.0 2.6 0.00 0.00 0.00 66 1013.7
20260901200906 82 206 0.0 2.6 0.00 0.00 0.00 68 1013.7
20260901200707 83 206 0.0 0.0 0.00 0.00 0.00 71 1013.7
20260901200508 83 204 0.0 0.0 0.00 0.00 0.00 70 1013.6
20260901200405 82 203 0.0 0.0 0.00 0.00 0.00 70 1013.5
20260901200206 82 204 0.0 0.0 0.00 0.00 0.00 68 1013.5
20260901200107 82 206 0.0 0.0 0.00 0.00 0.00 68 1013.5
20260901195911 82 204 0.0 0.0 0.00 0.00 0.00 68 1013.5
20260901195808 82 204 0.0 0.0 0.00 0.00 0.00 68 1013.5
20260901195707 82 204 0.0 0.0 0.00 0.00 0.00 68 1013.5
20260901195506 82 203 0.0 0.0 0.00 0.00 0.00 70 1013.4
20260901195306 82 204 0.0 0.0 0.00 0.00 0.00 70 1013.4
20260901195206 83 203 0.0 0.9 0.00 0.00 0.00 70 1013.4
20260901195107 83 203 0.0 2.6 0.00 0.00 0.00 70 1013.4
20260901195005 83 206 0.0 2.6 0.00 0.00 0.00 69 1013.5
20260901194708 83 204 0.0 2.6 0.00 0.00 0.00 68 1013.5
20260901194506 83 204 0.0 2.6 0.00 0.00 0.00 68 1013.5
20260901194409 83 204 0.0 2.6 0.00 0.00 0.00 64 1013.5
20260901194206 83 204 0.0 2.6 0.00 0.00 0.00 63 1013.7
20260901194107 83 207 0.0 2.6 0.00 0.00 0.00 65 1013.7
20260901193908 83 206 0.0 1.7 0.00 0.00 0.00 66 1013.7
20260901193709 83 204 0.0 1.7 0.00 0.00 0.00 63 1013.9
20260901193606 83 204 0.0 1.7 0.00 0.00 0.00 63 1013.9
20260901193452 83 206 0.0 1.7 0.00 0.00 0.00 64 1013.8
20260901193430 83 204 0.0 1.7 0.00 0.00 0.00 64 1013.8
20260901193107 83 204 0.0 1.7 0.00 0.00 0.00 63 1013.8
20260901192907 83 206 0.0 1.7 0.00 0.00 0.00 65 1013.8
20260901192708 83 204 0.0 1.7 0.00 0.00 0.00 65 1013.8
20260901192607 83 206 0.0 2.6 0.00 0.00 0.00 64 1013.7
20260901192307 83 204 0.0 2.6 0.00 0.00 0.00 64 1013.6
20260901192217 83 206 0.0 2.6 0.00 0.00 0.00 63 1013.7
20260901192206 83 204 0.0 2.6 0.00 0.00 0.00 63 1013.7
20260901191906 83 206 0.0 2.6 0.00 0.00 0.00 63 1013.8
20260901191707 83 206 0.0 2.6 0.00 0.00 0.00 62 1014.0
20260901191507 83 203 0.0 3.5 0.00 0.00 0.00 63 1014.0
20260901191306 83 202 0.0 3.5 0.00 0.00 0.00 63 1014.0
20260901191217 83 202 0.0 3.5 0.00 0.00 0.00 62 1014.0
20260901191206 83 203 0.0 3.5 0.00 0.00 0.00 62 1014.0
20260901190906 83 203 0.0 3.5 0.00 0.00 0.00 61 1014.0
20260901190812 83 202 0.0 3.5 0.00 0.00 0.00 61 1014.0
20260901190707 83 202 0.0 3.5 0.00 0.00 0.00 61 1014.0
20260901190506 83 223 0.0 3.5 0.00 0.00 0.00 60 1013.9
20260901190306 83 223 0.0 3.5 0.00 0.00 0.00 59 1013.9
20260901190206 83 224 0.0 3.5 0.00 0.00 0.00 60 1013.9
20260901190106 83 227 0.0 3.5 0.00 0.00 0.00 59 1013.9
20260901185906 83 230 0.0 2.6 0.00 0.00 0.00 61 1014.1
20260901185816 84 228 0.0 2.6 0.00 0.00 0.00 60 1014.0
20260901185708 84 228 0.0 2.6 0.00 0.00 0.00 60 1014.0
20260901185605 84 241 0.0 2.6 0.00 0.00 0.00 59 1014.0
20260901185458 84 241 0.0 1.7 0.00 0.00 0.00 59 1013.8
20260901185438 84 240 0.0 1.7 0.00 0.00 0.00 58 1013.9
20260901185106 84 240 0.0 1.7 0.00 0.00 0.00 59 1013.8
20260901184907 85 243 0.0 1.7 0.00 0.00 0.00 62 1013.9
20260901184707 85 241 0.0 1.7 0.00 0.00 0.00 60 1014.0
20260901184606 85 241 0.0 1.7 0.00 0.00 0.00 57 1013.9
20260901184305 85 241 0.0 1.7 0.00 0.00 0.00 58 1013.9
20260901184216 85 243 0.0 1.7 0.00 0.00 0.00 59 1013.9
20260901184206 85 243 0.0 1.7 0.00 0.00 0.00 60 1013.9
20260901183906 86 241 0.0 0.9 0.00 0.00 0.00 57 1013.9
20260901183708 86 241 0.0 0.9 0.00 0.00 0.00 57 1013.7
20260901183507 86 243 0.0 0.9 0.00 0.00 0.00 59 1013.6
20260901183305 86 243 0.0 0.9 0.00 0.00 0.00 58 1013.4
20260901183220 86 241 0.0 0.9 0.00 0.00 0.00 58 1013.5
20260901183206 86 243 0.0 0.9 0.00 0.00 0.00 60 1013.5
20260901182906 86 240 0.0 1.7 0.00 0.00 0.00 54 1013.7
20260901182811 86 241 0.0 1.7 0.00 0.00 0.00 53 1013.7
20260901182707 86 241 0.0 1.7 0.00 0.00 0.00 53 1013.7
20260901182507 87 243 0.0 1.7 0.00 0.00 0.00 58 1013.7
20260901182307 86 243 0.0 2.6 0.00 0.00 0.00 58 1013.8
20260901182211 86 243 0.0 2.6 0.00 0.00 0.00 58 1013.8
20260901182054 86 243 0.0 2.6 0.00 0.00 0.00 58 1013.7
20260901181853 85 243 0.0 3.5 0.00 0.00 0.00 61 1013.8
20260901181658 85 241 0.0 3.5 0.00 0.00 0.00 56 1013.9
20260901181454 85 241 0.0 3.5 0.00 0.00 0.00 57 1014.0
20260901181252 85 243 0.0 3.5 0.00 0.00 0.00 57 1014.0
20260901181154 85 243 0.0 3.5 0.00 0.00 0.00 56 1014.0
20260901181052 85 241 0.0 2.6 0.00 0.00 0.00 60 1014.1
20260901180849 85 241 0.0 2.6 0.00 0.00 0.00 60 1014.1
20260901180800 85 238 0.0 0.0 0.00 0.00 0.00 62 1014.2
20260901180655 85 238 0.0 0.0 0.00 0.00 0.00 62 1014.2
20260901180619 0 0.0 0.0 0.00 0.00 0.00
20260901180259 0 0.0 0.0 0.00 0.00 0.00
20260901180004 0 0.0 0.0 0.00 0.00 0.00
20260901175902 0 0.0 0.0 0.00 0.00 0.00
20260901175804 0 0.0 0.0 0.00 0.00 0.00
20260901175607 0 0.0 0.0 0.00 0.00 0.00
20260901175544 0 0.0 0.0 0.00 0.00 0.00 1014.4
20260901175232 0 0.0 0.0 0.00 0.00 0.00 1014.4
20260901174931 0 0.0 0.0 0.00 0.00 0.00 1014.4
20260901174839 84 278 0.0 2.6 0.00 0.00 0.00 60 1014.4
20260901174830 84 278 0.0 0.9 0.00 0.00 0.00 60 1014.4
20260901174611 84 278 0.0 2.6 0.00 0.00 0.00 60 1014.4
20260901174554 84 278 0.0 2.6 0.00 0.00 0.00 60 1014.4
20260901174303 84 278 0.0 2.6 0.00 0.00 0.00 60 1014.4
20260901174103 84 278 0.0 2.6 0.00 0.00 0.00 60 1014.5
20260901173831 84 278 0.0 2.6 0.00 0.00 0.00 60 1014.5
20260901173803 84 278 0.0 1.7 0.00 0.00 0.00 59 1014.5
20260901173632 84 278 0.0 0.9 0.00 0.00 0.00 59 1014.5
20260901173431 83 278 0.0 0.9 0.00 0.00 0.00 58 1014.4
20260901173303 83 279 0.0 0.9 0.00 0.00 0.00 58 1014.6
20260901173231 83 281 0.0 0.9 0.00 0.00 0.00 58 1014.6
20260901173030 83 279 0.0 0.9 0.00 0.00 0.00 61 1014.5
20260901172932 83 279 0.0 0.9 0.00 0.00 0.00 55 1014.6
20260901172802 83 279 0.0 0.9 0.00 0.00 0.00 55 1014.5
20260901172630 83 279 0.0 2.6 0.00 0.00 0.00 57 1014.6
20260901172530 83 278 0.0 2.6 0.00 0.00 0.00 64 1014.6
20260901172306 83 278 0.0 2.6 0.00 0.00 0.00 64 1014.6
20260901172230 83 278 0.0 2.6 0.00 0.00 0.00 64 1014.6
20260901172110 84 278 0.0 2.6 0.00 0.00 0.00 58 1014.7
20260901172058 83 278 0.0 2.6 0.00 0.00 0.00 60 1014.6
20260901172020 83 279 0.0 2.6 0.00 0.00 0.00 58 1014.6
20260901171629 84 223 0.0 3.5 0.00 0.00 0.00 57 1014.7
20260901171526 84 221 0.0 3.5 0.00 0.00 0.00 60 1014.7
20260901171301 83 221 0.0 3.5 0.00 0.00 0.00 60 1014.7
20260901171229 83 221 0.0 3.5 0.00 0.00 0.00 62 1014.7
20260901171157 83 221 0.0 3.5 0.00 0.00 0.00 60 1014.7
20260901171106 83 221 0.0 3.5 0.00 0.00 0.00 59 1014.6
20260901171020 83 220 0.0 3.5 0.00 0.00 0.00 56 1014.6
20260901170627 83 223 0.0 3.5 0.00 0.00 0.00 56 1014.7
20260901170426 83 221 0.0 3.5 0.00 0.00 0.00 54 1014.7
20260901170302 84 240 0.0 2.6 0.00 0.00 0.00 55 1014.7
20260901170229 84 240 0.0 2.6 0.00 0.00 0.00 55 1014.7
20260901170133 84 240 0.0 2.6 0.00 0.00 0.00 55 1014.6
20260901170021 84 240 0.0 2.6 0.00 0.00 0.00 61 1014.6
20260901165952 84 240 0.0 2.6 0.00 0.00 0.00 62 1014.6
20260901165715 83 240 0.0 2.6 0.00 0.00 0.00 59 1014.6
20260901165416 84 238 0.0 2.6 0.00 0.00 0.00 59 1014.6
20260901165314 84 240 0.0 2.6 0.00 0.00 0.00 64 1014.6
20260901165230 84 240 0.0 2.6 0.00 0.00 0.00 64 1014.6
20260901165016 83 240 0.0 3.5 0.00 0.00 0.00 60 1014.7
20260901164905 84 238 0.0 3.5 0.00 0.00 0.00 63 1014.6
20260901164731 83 240 0.0 3.5 0.00 0.00 0.00 66 1014.6
20260901164605 83 240 0.0 3.5 0.00 0.00 0.00 62 1014.6
20260901164404 83 238 0.0 3.5 0.00 0.00 0.00 64 1014.8
20260901164229 82 238 0.0 3.5 0.00 0.00 0.00 65 1014.8
20260901164205 82 240 0.0 3.5 0.00 0.00 0.00 65 1014.8
20260901164005 83 241 0.0 2.6 0.00 0.00 0.00 63 1014.8
20260901163849 83 241 0.0 4.3 0.00 0.00 0.00 64 1014.8
20260901163728 83 240 0.0 4.3 0.00 0.00 0.00 62 1014.8
20260901163548 83 237 0.0 4.3 0.00 0.00 0.00 65 1014.8
20260901163446 82 240 0.0 4.3 0.00 0.00 0.00 65 1014.7
20260901163229 82 240 0.0 4.3 0.00 0.00 0.00 67 1014.7
20260901163147 82 240 0.0 4.3 0.00 0.00 0.00 66 1014.8
20260901162946 81 240 0.0 4.3 0.00 0.00 0.00 64 1014.8
20260901162747 82 230 0.0 4.3 0.00 0.00 0.00 65 1014.8
20260901162728 82 234 0.0 4.3 0.00 0.00 0.00 64 1014.8
20260901162546 81 237 0.0 4.3 0.00 0.00 0.00 66 1015.0
20260901162444 81 237 0.0 4.3 0.00 0.00 0.00 67 1014.7
20260901162229 81 237 0.0 4.3 0.00 0.00 0.00 67 1014.8
20260901162142 81 237 0.0 4.3 0.00 0.00 0.00 69 1014.7
20260901162039 80 190 0.0 3.5 0.00 0.00 0.00 68 1014.7
20260901161730 80 190 0.0 3.5 0.00 0.00 0.00 68 1014.7
20260901161535 80 192 0.0 3.5 0.00 0.00 0.00 67 1014.7
20260901161333 80 190 0.0 3.5 0.00 0.00 0.00 69 1014.8
20260901161239 80 227 0.0 3.5 0.00 0.00 0.00 72 1014.8
20260901161229 80 189 0.0 3.5 0.00 0.00 0.00 72 1014.7
20260901160930 80 227 0.0 3.5 0.00 0.00 0.00 70 1014.8
20260901160730 80 209 0.0 3.5 0.00 0.00 0.00 71 1014.8
20260901160528 79 210 0.0 3.5 0.00 0.00 0.00 71 1014.8
20260901160328 79 221 0.0 3.5 0.00 0.00 0.00 71 1014.7
20260901160240 79 221 0.0 3.5 0.00 0.00 0.00 71 1014.8
20260901160229 79 220 0.0 3.5 0.00 0.00 0.00 71 1014.7
20260901155927 80 224 0.0 3.5 0.00 0.00 0.00 72 1014.7
20260901155836 80 227 0.0 3.5 0.00 0.00 0.00 71 1014.6
20260901155732 80 227 0.0 3.5 0.00 0.00 0.00 71 1014.6
20260901155532 80 227 0.0 2.6 0.00 0.00 0.00 71 1014.6
20260901155523 80 227 0.0 2.6 0.00 0.00 0.00 76 1014.6
20260901155455 80 227 0.0 2.6 0.00 0.00 0.00 72 1014.6
20260901155129 79 227 0.0 2.6 0.00 0.00 0.00 73 1014.7
20260901154929 79 226 0.0 2.6 0.00 0.00 0.00 73 1014.8
20260901154834 79 227 0.0 2.6 0.00 0.00 0.00 73 1014.7
20260901154731 79 227 0.0 2.6 0.00 0.00 0.00 73 1014.7
20260901154557 79 226 0.0 1.7 0.00 0.00 0.00 75 1014.6
20260901154532 79 226 0.0 1.7 0.00 0.00 0.00 74 1014.7
20260901154523 79 227 0.0 1.7 0.00 0.00 0.00 75 1014.6
20260901154130 79 226 0.0 1.7 0.00 0.00 0.00 73 1014.5
20260901153929 79 227 0.0 1.7 0.00 0.00 0.00 73 1014.5
20260901153731 79 227 0.0 1.7 0.00 0.00 0.00 75 1014.5
20260901153532 79 227 0.0 1.7 0.00 0.00 0.00 76 1014.5
20260901153522 78 227 0.0 2.6 0.00 0.00 0.00 73 1014.6
20260901153456 78 227 0.0 2.6 0.00 0.00 0.00 74 1014.6
20260901153129 78 228 0.0 2.6 0.00 0.00 0.00 74 1014.5
20260901153032 78 227 0.0 2.6 0.00 0.00 0.00 72 1014.6
20260901152744 78 227 0.0 2.6 0.00 0.00 0.00 77 1014.6
20260901152529 78 227 0.0 3.5 0.00 0.00 0.00 74 1014.7
20260901152329 78 227 0.0 3.5 0.00 0.00 0.00 74 1014.7
20260901152239 78 227 0.0 3.5 0.00 0.00 0.00 75 1014.7
20260901152229 78 228 0.0 3.5 0.00 0.00 0.00 75 1014.7
20260901151929 78 227 0.0 3.5 0.00 0.00 0.00 74 1014.7
20260901151743 78 227 0.0 3.5 0.00 0.00 0.00 76 1014.7
20260901151632 78 227 0.0 2.6 0.00 0.00 0.00 74 1014.7
20260901151328 78 227 0.0 2.6 0.00 0.00 0.00 76 1014.8
20260901151230 78 228 0.0 2.6 0.00 0.00 0.00 77 1014.8
20260901151131 77 228 0.0 2.6 0.00 0.00 0.00 76 1014.8
20260901150931 77 228 0.0 2.6 0.00 0.00 0.00 76 1014.6
20260901150835 77 227 0.0 1.7 0.00 0.00 0.00 78 1014.7
20260901150730 77 227 0.0 1.7 0.00 0.00 0.00 78 1014.7
20260901150530 77 228 0.0 1.7 0.00 0.00 0.00 78 1014.7
20260901150329 76 226 0.0 0.0 0.00 0.00 0.00 77 1014.8
20260901150240 76 227 0.0 0.0 0.00 0.00 0.00 79 1014.7
20260901150229 76 227 0.0 0.0 0.00 0.00 0.00 78 1014.8
20260901145928 76 227 0.0 0.0 0.00 0.00 0.00 79 1014.8
20260901145731 76 227 0.0 0.0 0.00 0.00 0.00 78 1014.8
20260901145531 76 230 0.0 0.0 0.00 0.00 0.00 78 1015.0
20260901145329 76 228 0.0 0.0 0.00 0.00 0.00 79 1015.0
20260901145229 75 228 0.0 0.0 0.00 0.00 0.00 80 1014.8
20260901145129 75 230 0.0 0.0 0.00 0.00 0.00 80 1015.1
20260901144928 75 228 0.0 0.0 0.00 0.00 0.00 79 1015.0
20260901144730 75 231 0.0 0.0 0.00 0.00 0.00 79 1015.0
20260901144629 75 228 0.0 0.0 0.00 0.00 0.00 82 1015.0
20260901144427 75 230 0.0 0.0 0.00 0.00 0.00 81 1015.1
20260901144228 74 228 0.0 0.0 0.00 0.00 0.00 81 1015.0
20260901144128 74 228 0.0 0.0 0.00 0.00 0.00 81 1015.1
20260901143929 74 230 0.0 0.0 0.00 0.00 0.00 83 1015.1
20260901143731 74 228 0.0 0.0 0.00 0.00 0.00 84 1015.0
20260901143530 74 228 0.0 0.0 0.00 0.00 0.00 84 1015.0
20260901143331 74 228 0.0 0.0 0.00 0.00 0.00 84 1015.0
20260901143238 73 230 0.0 0.0 0.00 0.00 0.00 85 1014.8
20260901143229 74 230 0.0 0.0 0.00 0.00 0.00 84 1014.8
20260901143031 73 228 0.0 0.0 0.00 0.00 0.00 86 1015.0
20260901142730 73 230 0.0 0.0 0.00 0.00 0.00 86 1015.0
20260901142530 73 228 0.0 0.0 0.00 0.00 0.00 87 1015.0
20260901142329 72 230 0.0 0.0 0.00 0.00 0.00 87 1015.0
20260901142230 72 228 0.0 0.0 0.00 0.00 0.00 88 1015.0
20260901142131 72 230 0.0 0.0 0.00 0.00 0.00 88 1015.1
20260901141929 72 231 0.0 0.0 0.00 0.00 0.00 89 1015.1
20260901141837 72 230 0.0 0.0 0.00 0.00 0.00 90 1015.0
20260901141731 72 230 0.0 0.0 0.00 0.00 0.00 90 1015.0
20260901141628 71 237 0.0 0.0 0.00 0.00 0.00 90 1015.0
20260901141329 71 192 0.0 0.0 0.00 0.00 0.00 91 1015.1
20260901141239 71 193 0.0 0.0 0.00 0.00 0.00 91 1015.1
20260901141230 71 190 0.0 0.0 0.00 0.00 0.00 91 1015.1
20260901140929 71 190 0.0 0.0 0.00 0.00 0.00 92 1015.2
20260901140838 71 203 0.0 0.0 0.00 0.00 0.00 92 1015.2
20260901140731 71 203 0.0 0.0 0.00 0.00 0.00 92 1015.2
20260901140528 70 203 0.0 0.0 0.00 0.00 0.00 93 1015.2
20260901140329 70 216 0.0 0.0 0.00 0.00 0.00 94 1015.2
20260901140229 70 216 0.0 0.0 0.00 0.00 0.00 94 1015.2
20260901140130 70 214 0.0 0.0 0.00 0.00 0.00 94 1015.2
20260901135930 70 214 0.0 0.0 0.00 0.00 0.00 95 1015.2
20260901135836 69 216 0.0 0.0 0.00 0.00 0.00 95 1015.3
20260901135731 69 216 0.0 0.0 0.00 0.00 0.00 95 1015.3
20260901135556 69 216 0.0 0.0 0.00 0.00 0.00 96 1015.3
20260901135529 69 214 0.0 0.0 0.00 0.00 0.00 95 1015.3
20260901135516 69 216 0.0 0.0 0.00 0.00 0.00 96 1015.3
20260901135130 68 216 0.0 0.0 0.00 0.00 0.00 97 1015.2
20260901134930 68 216 0.0 0.0 0.00 0.00 0.00 97 1015.4
20260901134731 68 214 0.0 0.0 0.00 0.00 0.00 97 1015.3
20260901134601 68 216 0.0 0.0 0.00 0.00 0.00 97 1015.3
20260901134529 68 214 0.0 0.0 0.00 0.00 0.00 97 1015.3
20260901134520 68 214 0.0 0.0 0.00 0.00 0.00 97 1015.4
20260901134130 68 216 0.0 0.0 0.00 0.00 0.00 97 1015.3
20260901134030 68 214 0.0 0.0 0.00 0.00 0.00 97 1015.3
20260901133730 67 216 0.0 0.0 0.00 0.00 0.00 97 1015.3
20260901133534 67 216 0.0 0.0 0.00 0.00 0.00 97 1015.4
20260901133528 67 214 0.0 0.0 0.00 0.00 0.00 97 1015.4
20260901133501 67 216 0.0 0.0 0.00 0.00 0.00 97 1015.4
20260901133129 67 216 0.0 0.0 0.00 0.00 0.00 97 1015.4
20260901132929 67 216 0.0 0.9 0.00 0.00 0.00 97 1015.4
20260901132731 67 216 0.0 0.9 0.00 0.00 0.00 97 1015.4
20260901132529 67 214 0.0 0.9 0.00 0.00 0.00 98 1015.4
20260901132428 67 216 0.0 0.9 0.00 0.00 0.00 98 1015.4
20260901132228 66 216 0.0 0.9 0.00 0.00 0.00 97 1015.3
20260901132128 66 216 0.0 0.9 0.00 0.00 0.00 97 1015.4
20260901132030 66 214 0.0 0.0 0.00 0.00 0.00 97 1015.3
20260901131731 66 214 0.0 0.0 0.00 0.00 0.00 97 1015.3
20260901131529 66 220 0.0 0.0 0.00 0.00 0.00 98 1015.2
20260901131331 66 220 0.0 0.0 0.00 0.00 0.00 97 1015.2
20260901131230 66 220 0.0 0.0 0.00 0.00 0.00 97 1015.2
20260901131129 66 220 0.0 0.0 0.00 0.00 0.00 97 1015.2
20260901131036 65 220 0.0 0.0 0.00 0.00 0.00 97 1015.2
20260901130730 65 219 0.0 0.0 0.00 0.00 0.00 97 1015.2
20260901130628 65 220 0.0 0.0 0.00 0.00 0.00 97 1015.1
20260901130330 65 219 0.0 0.0 0.00 0.00 0.00 98 1015.1
20260901130243 65 219 0.0 0.0 0.00 0.00 0.00 97 1015.1
20260901130129 65 220 0.0 0.0 0.00 0.00 0.00 97 1015.1
20260901125931 65 219 0.0 0.0 0.00 0.00 0.00 97 1015.0
20260901125733 65 219 0.0 0.0 0.00 0.00 0.00 98 1015.0
20260901125612 0 0.0 0.0 0.00 0.00 0.00
20260901125507 0 0.0 0.0 0.00 0.00 0.00
20260901125309 0 0.0 0.0 0.00 0.00 0.00
20260901125035 0 0.0 0.0 0.00 0.00 0.00
20260901124934 0 0.0 0.0 0.00 0.00 0.00
20260901124848 0 0.0 0.0 0.00 0.00 0.00
20260901124638 0 0.0 0.0 0.00 0.00 0.00
20260901124548 0 0.0 0.0 0.00 0.00 0.00 1014.8
20260901124444 0 0.0 0.0 0.00 0.00 0.00 1014.8
20260901124207 0 0.0 0.0 0.00 0.00 0.00 1014.8
20260901124110 0 0.0 0.0 0.00 0.00 0.00 1014.8
20260901123905 63 219 0.0 0.0 0.00 0.00 0.00 97 1014.8
20260901123808 63 219 0.0 0.0 0.00 0.00 0.00 97 1014.8
20260901123617 63 219 0.0 0.0 0.00 0.00 0.00 97 1014.7
20260901123610 63 219 0.0 0.0 0.00 0.00 0.00 97 1014.8
20260901123550 63 219 0.0 0.0 0.00 0.00 0.00 97 1014.8
20260901123158 63 220 0.0 0.0 0.00 0.00 0.00 97 1014.7
20260901123135 63 219 0.0 0.0 0.00 0.00 0.00 97 1014.7
20260901123115 63 220 0.0 0.0 0.00 0.00 0.00 97 1014.7
20260901122737 63 220 0.0 0.0 0.00 0.00 0.00 97 1014.7
20260901122634 62 220 0.0 0.0 0.00 0.00 0.00 97 1014.7
20260901122332 62 220 0.0 0.0 0.00 0.00 0.00 97 1014.7
20260901122135 62 220 0.0 0.0 0.00 0.00 0.00 97 1014.7
20260901122124 62 219 0.0 0.0 0.00 0.00 0.00 97 1014.7
20260901122101 62 220 0.0 0.0 0.00 0.00 0.00 97 1014.7
20260901121736 62 220 0.0 0.0 0.00 0.00 0.00 97 1014.7
20260901121635 62 220 0.0 0.0 0.00 0.00 0.00 97 1014.6
20260901121330 62 220 0.0 0.0 0.00 0.00 0.00 97 1014.6
20260901121236 62 219 0.0 0.0 0.00 0.00 0.00 97 1014.5
20260901121056 62 220 0.0 0.0 0.00 0.00 0.00 97 1014.5
20260901121036 62 220 0.0 0.0 0.00 0.00 0.00 97 1014.5
20260901120736 62 219 0.0 0.0 0.00 0.00 0.00 97 1014.5
20260901120634 62 220 0.0 0.0 0.00 0.00 0.00 97 1014.6
20260901120334 62 220 0.0 0.0 0.00 0.00 0.00 97 1014.6
20260901120301 62 219 0.0 0.0 0.00 0.00 0.00 97 1014.5
20260901120139 62 219 0.0 0.0 0.00 0.00 0.00 97 1014.4
20260901120135 62 221 0.0 0.0 0.00 0.00 0.00 97 1014.6
20260901120052 62 219 0.0 0.0 0.00 0.00 0.00 97 1014.5
20260901115737 62 220 0.0 0.0 0.00 0.00 0.00 97 1014.5
20260901115534 62 219 0.0 0.0 0.00 0.00 0.00 97 1014.4
20260901115336 62 219 0.0 0.0 0.00 0.00 0.00 97 1014.5
20260901115306 62 220 0.0 0.0 0.00 0.00 0.00 97 1014.4
20260901115235 62 220 0.0 0.0 0.00 0.00 0.00 97 1014.4
20260901114939 62 219 0.0 0.0 0.00 0.00 0.00 97 1014.4
20260901114800 62 219 0.0 0.0 0.00 0.00 0.00 97 1014.3
20260901114731 62 220 0.0 0.0 0.00 0.00 0.00 97 1014.3
20260901114644 62 220 0.0 0.0 0.00 0.00 0.00 97 1014.3
20260901114521 62 220 0.0 0.0 0.00 0.00 0.00 97 1014.3
20260901114106 62 220 0.0 0.0 0.00 0.00 0.00 97 1014.2
20260901113906 62 217 0.0 0.0 0.00 0.00 0.00 97 1014.3
20260901113807 62 220 0.0 0.0 0.00 0.00 0.00 97 1014.2
20260901113754 62 219 0.0 0.0 0.00 0.00 0.00 97 1014.2
20260901113540 62 219 0.0 0.0 0.00 0.00 0.00 97 1014.1
20260901113528 62 220 0.0 0.0 0.00 0.00 0.00 97 1014.1
20260901113457 62 220 0.0 0.0 0.00 0.00 0.00 97 1014.1
20260901113103 62 219 0.0 0.0 0.00 0.00 0.00 97 1014.1
20260901112902 62 220 0.0 0.0 0.00 0.00 0.00 97 1014.2
20260901112738 62 220 0.0 0.0 0.00 0.00 0.00 97 1014.1
20260901112702 62 219 0.0 0.0 0.00 0.00 0.00 97 1014.1
20260901112542 62 220 0.0 0.0 0.00 0.00 0.00 97 1014.0
20260901112529 62 220 0.0 0.0 0.00 0.00 0.00 96 1014.0
20260901112458 62 219 0.0 0.0 0.00 0.00 0.00 97 1014.0
20260901112205 62 220 0.0 0.0 0.00 0.00 0.00 97 1014.0
20260901111901 62 221 0.0 0.0 0.00 0.00 0.00 96 1013.9
20260901111803 62 219 0.0 0.0 0.00 0.00 0.00 96 1013.8
20260901111736 62 220 0.0 0.0 0.00 0.00 0.00 96 1013.9
20260901111444 62 220 0.0 0.0 0.00 0.00 0.00 96 1013.8
20260901111237 62 220 0.0 0.0 0.00 0.00 0.00 96 1013.8
20260901111040 62 219 0.0 0.0 0.00 0.00 0.00 97 1013.8
20260901110838 62 220 0.0 0.0 0.00 0.00 0.00 96 1013.7
20260901110747 62 220 0.0 0.0 0.00 0.00 0.00 96 1013.8
20260901110735 62 219 0.0 0.0 0.00 0.00 0.00 96 1013.7
20260901110440 62 220 0.0 0.0 0.00 0.00 0.00 97 1013.8
20260901110339 62 220 0.0 0.0 0.00 0.00 0.00 97 1013.8
20260901110235 62 219 0.0 0.0 0.00 0.00 0.00 97 1013.8
20260901110036 62 220 0.0 0.0 0.00 0.00 0.00 96 1013.7
20260901105837 62 220 0.0 0.0 0.00 0.00 0.00 96 1013.7
20260901105733 62 219 0.0 0.0 0.00 0.00 0.00 97 1013.8
20260901105638 62 219 0.0 0.0 0.00 0.00 0.00 97 1013.8
20260901105435 62 220 0.0 0.0 0.00 0.00 0.00 96 1013.8
20260901105343 62 219 0.0 0.0 0.00 0.00 0.00 96 1013.8
20260901105235 62 219 0.0 0.0 0.00 0.00 0.00 96 1013.8
20260901105036 62 219 0.0 0.0 0.00 0.00 0.00 96 1013.8
20260901104835 62 219 0.0 0.0 0.00 0.00 0.00 97 1013.8
20260901104735 62 219 0.0 0.0 0.00 0.00 0.00 97 1013.8
20260901104639 62 220 0.0 0.0 0.00 0.00 0.00 97 1013.7
20260901104635 62 219 0.0 0.0 0.00 0.00 0.00 97 1013.8
20260901104236 62 220 0.0 0.0 0.00 0.00 0.00 96 1013.8
20260901104214 62 220 0.0 0.0 0.00 0.00 0.00 96 1013.7
20260901104035 62 220 0.0 0.0 0.00 0.00 0.00 96 1013.7
20260901103838 62 220 0.0 0.0 0.00 0.00 0.00 96 1013.8
20260901103704 62 220 0.0 0.0 0.00 0.00 0.00 96 1013.9
20260901103635 62 219 0.0 0.0 0.00 0.00 0.00 96 1013.9
20260901103435 62 220 0.0 0.0 0.00 0.00 0.00 96 1013.7
20260901103240 62 220 0.0 0.0 0.00 0.00 0.00 97 1013.7
20260901103235 62 220 0.0 0.0 0.00 0.00 0.00 97 1013.7
20260901103205 62 220 0.0 0.0 0.00 0.00 0.00 97 1013.7
20260901102954 62 220 0.0 0.0 0.00 0.00 0.00 97 1013.7
20260901102940 62 217 0.0 0.0 0.00 0.00 0.00 97 1013.7
20260901102631 62 220 0.0 0.0 0.00 0.00 0.00 97 1013.7
20260901102431 62 217 0.0 0.0 0.00 0.00 0.00 96 1013.7
20260901102231 62 220 0.0 0.0 0.00 0.00 0.00 96 1013.8
20260901102204 62 221 0.0 0.0 0.00 0.00 0.00 96 1013.8
20260901102037 62 219 0.0 0.0 0.00 0.00 0.00 96 1013.7
20260901102032 62 219 0.0 0.0 0.00 0.00 0.00 96 1013.8
20260901101958 62 219 0.0 0.0 0.00 0.00 0.00 96 1013.6
20260901101953 62 220 0.0 0.0 0.00 0.00 0.00 96 1013.6
20260901101431 62 220 0.0 0.0 0.00 0.00 0.00 96 1013.7
20260901101232 62 220 0.0 0.0 0.00 0.00 0.00 96 1013.6
20260901101205 62 220 0.0 0.0 0.00 0.00 0.00 96 1013.7
20260901101030 62 219 0.0 0.0 0.00 0.00 0.00 96 1013.5
20260901100957 62 219 0.0 0.0 0.00 0.00 0.00 96 1013.5
20260901100939 62 220 0.0 0.0 0.00 0.00 0.00 96 1013.6
20260901100632 62 220 0.0 0.0 0.00 0.00 0.00 96 1013.5
20260901100431 62 220 0.0 0.0 0.00 0.00 0.00 96 1013.6
20260901100203 62 220 0.0 0.0 0.00 0.00 0.00 96 1013.6